FENGYUN 1C DEB

Satellite information

Favourite Embed

Satellite Type and Status

DEBRISIN ORBIT

Key statistics

Satellite FENGYUN 1C DEB at a glance.

Uptime

9715

Days in orbit

Revolutions

≈ 14.4

Per day

Orbit

SSO

Sun Synchronous Orbit

Inclination

98.8

Latest

Satellite identification and parameters

Extended collection of information and parameters for FENGYUN 1C DEB.

Object identification

Identified? True

Debris? True

Object name: FENGYUN 1C DEB

International designator: 1999-025ECZ

Object number (NORAD): 37017

Object ID (CCSDS): 37017

Country: PEOPLES REPUBLIC OF CHINA (PRC)

Current information (Y/N): Y

RCS size: SMALL

Orbital parameters

Period: 99.952 minutes

Inclination: 98.7925 deg

SMA: 7134.355 km

Apoapsis: 957.766 km

Periapsis: 554.674 km

RAAN: 291.6095 deg

Eccentricy: 0.02825013

Argument of periapsis: 4.2343 deg

Mean anomaly: 356.114 deg

Mean motion: 14.40690493 rev/day

Mean motion (dot): 0.00013671 rev/day2

B* drag term: 0.002666834 1/REarth

Two-line elements (TLE)

Creation date: Dec. 13, 2025, 5:47 p.m.

Reference frame: TEME

Reference center: EARTH

Epoch: Dec. 13, 2025, 2:02 a.m. UTC

TLE line 0: 0 FENGYUN 1C DEB

TLE line 1: 1 37017U 99025ECZ 25347.08485266 .00013671 00000-0 26668-2 0 9991

TLE line 2: 2 37017 98.7925 291.6095 0282501 4.2343 356.1140 14.40690493611666

Live tracking on map

Real-time ground track for satellite FENGYUN 1C DEB.

In-orbit conjunctions

A list of the most updated potential collisions computed for object FENGYUN 1C DEB.

Target Orbit TCA Probability of collision Miss distance Type
THORAD AGENA D DEB LEO 2024-06-07 01:44:54 0.0001115613 240.0 (m) DEBRIS

Associated space launch

Chinese polar orbiting meteorological satellite

FENGYUN 1C DEB was lifted into orbit during the mission ‘Long March 4B | Feng Yun 1C’, on board a Long March 4B space rocket.

The launch took place on May 10, 1999, 1:33 a.m. from Launch Complex 7.

For more information about the launch, click the button.

Launch to space Long March 4B | Feng Yun 1C
Long March 4B | Feng Yun 1C

Agency: N/A

Status: Launch Successful

Launch date: May 10, 1999, 1:33 a.m. UTC

Rocket: Long March 4B

Launch pad: Launch Complex 7

Location: Taiyuan Satellite Launch Center, People's Republic of China

...

Latest news about this satellite

There are no fresh news available about this satellite. Check back as we update our databases every day.


Newsletter sign-up

Weekly statistics, charts and insights to help you stay on top of the space industry.